Weather History for Kinston, NC

Change the Weather History Date:

Friday, August 16, 2013

  Actual Average Record
Temperature  
Mean Temperature 70 °F -  
Max Temperature 75 °F 87 °F 98 °F (2005)
Min Temperature 66 °F 68 °F 56 °F (1979)
Cooling Degree Days 6    
Growing Degree Days 20 (Base 50)    
Moisture  
Dew Point 64 °F    
Average Humidity 86    
Maximum Humidity 94    
Minimum Humidity 61    
Precipitation  
Precipitation 0.01 in - - ()
Sea Level Pressure  
Sea Level Pressure 30.12 in    
Wind  
Wind Speed 4 mph (NNE)    
Max Wind Speed 12 mph    
Max Gust Speed -    
Visibility 10 miles    
Events Rain    
Averages and records for this station are not official NWS values.
T = Trace of Precipitation, MM = Missing Value Source: NWS Daily Summary

Daily Weather History Graph

Daily Weather History Graph

Search for Another Location

Airport:

Trip Planner

Search our weather history database for the weather conditions in past years. The results will help you decide how hot, cold, wet, or windy it might be!

Date:

Astronomy

Aug. 16, 2013 Rise Set
Actual Time 6:30 AM EDT 7:57 PM EDT
Civil Twilight 6:04 AM EDT 8:24 PM EDT
Nautical Twilight 5:31 AM EDT 8:56 PM EDT
Astronomical Twilight 4:58 AM EDT 9:30 PM EDT
Moon 4:10 PM EDT (8/16) 1:35 AM EDT (8/16)
Length of Visible Light 14h 20m
Length of Day
13h 26m
Waxing Gibbous, 74% of the Moon is Illuminated
Aug 16
Waxing Gibbous
Aug 20
Full
Aug 28
Last Quarter
Sep 5
New
Sep 12
First Quarter

Hourly Weather History & Observations

Time (EDT) Temp. Dew Point Humidity Pressure Visibility Wind Dir Wind Speed Gust Speed Precip Events Conditions
12:15 AM 69.8 °F 62.6 °F 78% 30.12 in 10.0 mi NNE 4.6 mph - N/A   Overcast
12:35 AM 69.8 °F 63.0 °F 79% 30.12 in 10.0 mi NNE 3.5 mph - N/A   Mostly Cloudy
12:55 AM 68.7 °F 64.0 °F 85% 30.11 in 10.0 mi NE 4.6 mph - N/A   Drizzle
1:15 AM 68.0 °F 64.4 °F 88% 30.10 in 10.0 mi NNE 5.8 mph - N/A   Overcast
1:55 AM 68.2 °F 64.4 °F 88% 30.10 in 10.0 mi NNE 4.6 mph - N/A   Overcast
2:15 AM 67.5 °F 64.4 °F 90% 30.09 in 5.0 mi NNE 3.5 mph - N/A   Drizzle
2:35 AM 67.3 °F 64.6 °F 91% 30.09 in 7.0 mi NE 3.5 mph - 0.01 in   Drizzle
2:55 AM 67.3 °F 63.7 °F 88% 30.09 in 10.0 mi NNE 5.8 mph - 0.01 in   Mostly Cloudy
3:15 AM 67.1 °F 64.2 °F 90% 30.09 in 10.0 mi Calm Calm - N/A Rain Light Rain
3:35 AM 67.1 °F 64.9 °F 93% 30.09 in 10.0 mi Calm Calm - N/A   Mostly Cloudy
3:55 AM 67.1 °F 64.9 °F 93% 30.09 in 10.0 mi Calm Calm - N/A   Mostly Cloudy
4:15 AM 67.1 °F 64.4 °F 91% 30.09 in 10.0 mi Calm Calm - N/A   Overcast
4:35 AM 66.9 °F 63.7 °F 89% 30.09 in 10.0 mi North 3.5 mph - N/A   Overcast
4:55 AM 66.7 °F 63.9 °F 90% 30.09 in 10.0 mi North 3.5 mph - N/A   Mostly Cloudy
5:15 AM 66.6 °F 63.7 °F 90% 30.09 in 10.0 mi NNE 4.6 mph - N/A   Overcast
5:35 AM 66.7 °F 63.1 °F 88% 30.09 in 10.0 mi Calm Calm - N/A   Overcast
5:55 AM 66.9 °F 63.1 °F 88% 30.09 in 10.0 mi Calm Calm - N/A   Overcast
6:15 AM 67.1 °F 62.8 °F 86% 30.10 in 10.0 mi North 3.5 mph - N/A   Overcast
6:35 AM 67.3 °F 63.0 °F 86% 30.11 in 10.0 mi Calm Calm - N/A   Mostly Cloudy
6:55 AM 67.1 °F 63.0 °F 87% 30.11 in 10.0 mi NNE 5.8 mph - N/A   Mostly Cloudy
6:56 AM 66.2 °F 62.6 °F 88% 30.11 in 10.0 mi NNE 4.6 mph - N/A   Mostly Cloudy
7:56 AM 66.2 °F 62.6 °F 88% 30.12 in 10.0 mi NNE 4.6 mph - N/A   Mostly Cloudy
8:56 AM 69.8 °F 62.6 °F 78% 30.13 in 10.0 mi NNE 5.8 mph - N/A   Mostly Cloudy
9:56 AM 71.6 °F 62.6 °F 73% 30.14 in 10.0 mi NNE 5.8 mph - N/A   Overcast
10:56 AM 73.4 °F 62.6 °F 69% 30.14 in 10.0 mi NE 11.5 mph - N/A   Overcast
11:56 AM 75.2 °F 60.8 °F 61% 30.15 in 10.0 mi NE 9.2 mph - N/A   Overcast
12:56 PM 75.2 °F 62.6 °F 65% 30.13 in 10.0 mi NE 8.1 mph - N/A   Overcast
1:56 PM 73.4 °F 62.6 °F 69% 30.14 in 10.0 mi East 6.9 mph - N/A   Overcast
2:56 PM 73.4 °F 62.6 °F 69% 30.12 in 10.0 mi NE 8.1 mph - N/A Rain Light Rain
3:56 PM 69.8 °F 66.2 °F 88% 30.11 in 5.0 mi NNE 6.9 mph - N/A Rain Rain
4:56 PM 69.8 °F 64.4 °F 83% 30.13 in 7.0 mi Calm Calm - N/A   Mostly Cloudy
5:56 PM 69.8 °F 66.2 °F 88% 30.13 in 7.0 mi North 4.6 mph - N/A Rain Light Rain
6:56 PM 69.8 °F 66.2 °F 88% 30.12 in 7.0 mi NE 3.5 mph - N/A   Clear
7:56 PM 69.8 °F 66.2 °F 88% 30.12 in 10.0 mi Calm Calm - N/A   Mostly Cloudy
8:56 PM 68.0 °F 66.2 °F 94% 30.16 in 10.0 mi NNW 6.9 mph - N/A   Mostly Cloudy
9:15 PM 67.5 °F 65.5 °F 93% 30.16 in 10.0 mi NNW 5.8 mph - N/A   Light Drizzle
9:35 PM 67.5 °F 65.3 °F 93% 30.17 in 10.0 mi North 6.9 mph - N/A   Mostly Cloudy
9:55 PM 67.3 °F 65.3 °F 93% 30.17 in 10.0 mi North 6.9 mph - N/A   Mostly Cloudy
10:15 PM 67.5 °F 64.9 °F 92% 30.17 in 10.0 mi NNE 5.8 mph - N/A   Mostly Cloudy
10:35 PM 67.6 °F 65.1 °F 92% 30.16 in 10.0 mi NE 5.8 mph - N/A   Scattered Clouds
10:55 PM 67.1 °F 64.8 °F 92% 30.16 in 10.0 mi NNE 4.6 mph - N/A   Clear
11:15 PM 66.6 °F 64.4 °F 93% 30.16 in 10.0 mi NNE 5.8 mph - N/A   Scattered Clouds
11:35 PM 66.2 °F 64.0 °F 93% 30.16 in 10.0 mi North 4.6 mph - N/A   Clear
11:55 PM 66.2 °F 63.9 °F 92% 30.17 in 10.0 mi North 3.5 mph - N/A   Scattered Clouds